Regional Weather Roundup
Issued by NWS Northern Indiana

Home | Current Version | Previous Version | Text Only | Print | Product List | Glossary On
Versions: 1 2 3 4 5 6 7 8 9 10 11 12 13 14 15 16 17 18 19 20 21 22 23 24 25 26 27 28 29 30 31 32 33 34 35 36 37 38 39 40 41 42 43 44 45 46 47 48 49 50
000
ASUS43 KIWX 020210
RWRIWX

KIWX WEATHER ROUNDUP
NATIONAL WEATHER SERVICE NORTHERN INDIANA
1000 PM EDT MON SEP 01 2014

NOTE: "FAIR" INDICATES FEW OR NO CLOUDS BELOW 12,000 FEET WITH NO
SIGNIFICANT WEATHER AND/OR OBSTRUCTIONS TO VISIBILITY.

* THESE STATIONS ARE NOT UNDER NWS QUALITY CONTROL. THEY ALSO MAY NOT
  REPORT WEATHER SUCH AS PRECIPITATION OR FOG.

INZ001>027-020300-
NORTHERN INDIANA

CITY           SKY/WX    TMP DP  RH WIND       PRES   REMARKS
GARY*          PTCLDY    77  66  69 SW12      29.85R
VALPARAISO     CLEAR     72  66  81 SW7       29.87R
MICHIGAN CITY* CLEAR     70  63  78 S7        29.84R
LAPORTE*       CLEAR     71  65  83 SW5       29.87R
KNOX*          CLEAR     71  65  81 SW7       29.85R
SOUTH BEND     CLEAR     73  66  78 SW7       29.85R
GOSHEN         PTCLDY    75  66  73 SW12      29.85R
MONTICELLO*    CLEAR     71  66  84 SW6       29.88R
LOGANSPORT*    CLEAR     68  63  83 SW7       29.89R
ROCHESTER*     CLEAR     73  66  78 SW5       29.88R
WARSAW*        PTCLDY    73  64  73 W9        29.87R
ANGOLA*        CLEAR     73  66  78 W9        29.86R
FORT WAYNE     PTCLDY    73  68  84 SW8       29.88R
HUNTINGTON*    PTCLDY    73  68  82 W10       29.88R
PERU/GRISSOM   PTCLDY    71  69  91 SW9       29.89R
MARION*        PTCLDY    72  68  87 SW7       29.90R

$$
INZ028>050-020300-
CENTRAL INDIANA

CITY           SKY/WX    TMP DP  RH WIND       PRES   REMARKS
LAFAYETTE      CLEAR     71  65  81 CALM      29.89R
KOKOMO*        PTCLDY    72  63  73 W12       29.89R
MUNCIE*        PTCLDY    76  68  76 SW8       29.91R
INDIANAPOLIS   PTCLDY    74  68  81 SW12      29.91R

$$
MIZ043>046-050>051-056>058-064>065-071>073-077>080-020300-
SOUTHWEST LOWER MICHIGAN

CITY           SKY/WX    TMP DP  RH WIND       PRES   REMARKS
BATTLE CREEK   PTCLDY    73  66  78 SW8       29.84R
BENTON HARBOR  CLEAR     75  66  73 SW14G22   29.82R
COLDWATER*     CLEAR     73  69  87 SW7       29.84R
HILLSDALE*     PTCLDY    74  71  90 SW3       29.86R
HOLLAND        PTCLDY    74  67  78 SW8       29.81R
GRAND RAPIDS   PTCLDY    73  70  90 SW7       29.81R
KALAMAZOO      PTCLDY    73  65  75 SW6       29.84R
STURGIS*         N/A     73  68  83 SW7       29.84R
THREE RIVERS*  FAIR      75  68  79 CALM      29.85R

$$
OHZ001>008-015>018-024>025-020300-
NORTHWEST OHIO

CITY           SKY/WX    TMP DP  RH WIND       PRES   REMARKS
WAUSEON*       FAIR      73  72  94 SW7       29.85R
DEFIANCE       PTCLDY    76  69  79 SW7       29.85R
FINDLAY        CLEAR     74  70  87 S7        29.87R
TOLEDO EXPRESS PTCLDY    76  70  82 SW8       29.84R
TOLEDO METCALF PTCLDY    75  69  81 SW6       29.85R
LIMA           CLEAR     77  69  76 SW10      29.89R

$$
&&



USA.gov is the U.S. government's official web portal to all federal, state and local government web resources and services.